Flag for Ecuador Weather past 2 weeks in Guayaquil, Ecuador

Now
82 °F

Broken clouds.


Feels Like: 88 °F
Forecast: 75 / 89 °F
Wind: 3 mph from East

Location: Guayaquil / Simon Bolivar

Current Time: Apr 25, 2015 at 10:34:00 AM

Latest Report: Apr 25, 2015 at 10:00 AM


Visibility: N/A

Pressure: 29.86 "Hg

Humidity: 74%

Dew point: 73 °F

Location of GuayaquilLocation

Historic Weather in Guayaquil — Graph

°F

Guayaquil temperature yesterday

Maximum temperature yesterday: 86 °F (at 11:00 AM)
Minimum temperature yesterday: 77 °F (at 5:00 AM)
Average temperature yesterday: 81 °F

Past Weeks' High & Low Weather Summary

 TemperatureHumidityPressure
High91 °F (Apr 20, 4:00 PM)100% (Apr 14, 6:00 AM)29.95 "Hg (Apr 14, 6:00 AM)
Low75 °F (Apr 14, 12:00 AM)55% (Apr 20, 10:00 AM)29.68 "Hg (Apr 20, 5:00 PM)
Average82 °F78%29.81 "Hg
* Reported Apr 10 9:00 AM — Apr 25 9:00 AM, Guayaquil, Weather by CustomWeather, © 2015

Note: Actual official high and low records may vary slightly from our data, if they occured in-between our weather recording intervals... More about our weather records

Advertising

Guayaquil weather history for previous 24 hours

 ConditionsComfort  
Time TempWeatherWind HumidityBarometerVisibility
9:00 AM
Sat, Apr 25
81 °FBroken clouds.5 mph79%29.86 "HgN/A
8:00 AM79 °FScattered showers. Broken clouds.3 mph84%29.86 "HgN/A
7:00 AM77 °FBroken clouds.1 mph79%29.83 "HgN/A
6:00 AM77 °FPartly cloudy.2 mph83%29.83 "HgN/A
5:00 AM77 °FPartly cloudy.2 mph89%29.83 "HgN/A
4:00 AM77 °FPartly cloudy.1 mph89%29.83 "HgN/A
3:00 AM77 °FPartly cloudy.3 mph89%29.83 "HgN/A
2:00 AM77 °FPartly cloudy.6 mph89%29.86 "HgN/A
1:00 AM79 °FPartly cloudy.6 mph84%29.86 "HgN/A
12:00 AM81 °FPartly cloudy.7 mph84%29.89 "HgN/A
11:00 PM
Fri, Apr 24
81 °FPartly cloudy.5 mph79%29.89 "HgN/A
10:00 PM81 °FPartly cloudy.9 mph79%29.89 "HgN/A
9:00 PM81 °FPartly cloudy.9 mph70%29.86 "HgN/A
8:00 PM82 °FPartly cloudy.8 mph74%29.83 "HgN/A
6:00 PM82 °FLight rain. Broken clouds.3 mph79%29.77 "HgN/A
5:00 PM84 °FScattered showers. Broken clouds.2 mph74%29.77 "HgN/A
4:00 PM86 °FBroken clouds.5 mph70%29.77 "HgN/A
3:00 PM86 °FBroken clouds.5 mph66%29.77 "HgN/A
1:00 PM84 °FBroken clouds.3 mph70%29.83 "HgN/A
12:00 PM86 °FBroken clouds.6 mph66%29.83 "HgN/A
11:00 AM86 °FBroken clouds.7 mph70%29.86 "HgN/A
10:00 AM84 °FBroken clouds.7 mph74%29.86 "HgN/A
Weather by CustomWeather, © 2015

See weather overviewHow to use our weather pages